Total_Precipitation_Accumulation
0.04 0.07 0.11 0.16 0.19 0.21 0.26 0.36 0.42 0.45 0.43 0.51 0.61 0.73 0.99 1.21 1.46 1.52 1.62 1.90 2.13 2.37 2.52 2.87 3.25 3.54 4.09 4.24 4.18 4.29 4.43 4.64 4.80 5.11 5.24 5.54 5.90 6.13 6.28 6.20 6.04 6.12 6.10 6.14
0.08 0.11 0.11 0.15 0.15 0.18 0.27 0.43 0.48 0.46 0.44 0.53 0.72 0.88 1.09 1.32 1.48 1.47 1.63 1.81 2.08 2.45 2.78 3.00 3.20 3.59 4.13 4.39 4.47 4.57 4.80 5.14 5.32 5.60 6.08 6.41 6.75 6.97 7.13 7.15 6.73 6.43 6.30 6.22
0.09 0.11 0.10 0.12 0.13 0.16 0.22 0.32 0.41 0.49 0.53 0.61 0.84 1.24 1.45 1.61 1.69 1.81 2.05 2.26 2.35 2.57 2.95 3.04 3.09 3.52 3.88 4.15 4.33 4.56 4.87 5.40 5.93 6.30 6.73 7.11 7.35 7.38 7.20 6.91 6.90 6.65 6.43 6.30
0.10 0.07 0.08 0.11 0.14 0.18 0.21 0.24 0.35 0.42 0.62 0.76 0.90 1.65 2.04 2.04 2.04 2.25 2.45 2.52 2.59 2.68 2.90 3.01 3.13 3.44 3.77 4.07 4.27 4.66 5.27 6.06 6.59 6.97 7.50 8.07 8.24 8.00 7.64 7.23 6.79 6.41 6.13 5.81
0.12 0.10 0.12 0.13 0.15 0.18 0.20 0.21 0.29 0.36 0.51 0.74 0.97 1.53 2.47 2.51 2.50 2.62 2.75 2.55 2.58 2.49 2.55 2.80 2.95 3.19 3.70 4.02 4.27 4.63 5.27 6.07 6.82 7.61 8.26 8.74 8.62 8.29 7.88 7.16 6.52 6.02 5.61 5.23
0.12 0.10 0.11 0.10 0.11 0.16 0.16 0.21 0.30 0.38 0.53 0.88 0.95 1.38 2.25 2.61 2.79 2.85 2.75 2.51 2.41 2.29 2.31 2.44 2.62 2.99 3.54 3.85 4.05 4.38 5.03 5.84 6.53 7.13 7.65 7.93 7.83 7.67 7.15 6.46 5.81 5.38 5.05 4.68
0.20 0.19 0.13 0.10 0.10 0.17 0.20 0.30 0.66 0.90 1.05 1.11 0.88 1.22 2.03 2.34 2.44 2.37 2.41 2.44 2.26 2.30 2.26 2.26 2.39 2.68 3.11 3.27 3.64 4.03 4.49 5.17 5.62 5.96 6.33 6.56 6.71 6.53 6.17 5.67 5.19 4.75 4.27 3.91
0.35 0.33 0.17 0.11 0.12 0.20 0.23 0.29 0.73 1.11 1.18 1.22 1.19 1.67 2.32 2.26 2.15 2.07 2.04 2.08 2.11 2.27 2.28 2.27 2.43 2.63 2.89 3.06 3.23 3.41 3.70 4.09 4.28 4.33 4.57 4.88 4.97 4.92 4.77 4.50 4.09 3.81 3.46 3.09
0.45 0.36 0.18 0.13 0.11 0.16 0.23 0.25 0.36 0.71 0.84 1.31 1.67 2.16 2.67 2.35 2.22 2.17 2.07 1.94 1.90 1.96 2.10 2.27 2.40 2.43 2.43 2.46 2.55 2.65 2.86 3.01 3.07 3.16 3.25 3.43 3.50 3.48 3.43 3.31 3.04 2.82 2.70 2.42
0.39 0.35 0.19 0.14 0.13 0.17 0.21 0.29 0.45 0.82 1.31 1.61 1.92 2.67 3.42 3.10 2.56 2.22 1.98 1.77 1.71 1.77 1.92 2.11 2.27 2.27 2.25 2.16 2.22 2.30 2.45 2.52 2.52 2.60 2.61 2.58 2.65 2.64 2.63 2.51 2.39 2.34 2.27 2.15
0.36 0.41 0.26 0.21 0.25 0.27 0.31 0.38 0.56 0.87 1.06 1.60 2.17 3.00 3.12 3.34 3.06 2.51 2.17 2.02 1.93 1.83 1.91 2.10 2.13 2.08 2.08 2.05 2.08 2.16 2.18 2.23 2.23 2.22 2.29 2.30 2.22 2.20 2.25 2.24 2.10 2.07 2.05 1.93
0.37 0.51 0.49 0.34 0.28 0.27 0.30 0.38 0.57 1.13 1.28 1.35 2.07 3.16 2.90 3.13 3.25 2.95 2.68 2.55 2.46 2.26 2.10 2.09 2.01 1.95 1.90 1.97 2.01 2.11 2.08 2.03 2.07 1.98 1.94 1.96 2.00 1.95 1.97 1.95 1.84 1.84 1.91 1.84
0.42 0.66 1.06 1.01 0.78 0.49 0.41 0.41 0.49 0.68 1.12 1.47 2.15 3.36 3.26 3.10 3.17 3.10 2.84 2.76 2.83 2.72 2.56 2.35 2.14 2.05 1.99 1.99 1.97 1.90 1.90 1.92 1.94 1.94 1.90 1.83 1.85 1.88 1.87 1.82 1.79 1.77 1.82 1.82
0.38 0.69 1.29 1.71 1.28 0.82 0.61 0.47 0.49 0.68 1.24 1.51 1.94 2.73 3.12 3.12 3.08 3.09 3.23 3.23 3.32 3.06 2.75 2.54 2.35 2.30 2.19 2.13 2.15 2.06 1.99 1.88 1.91 1.90 1.84 1.84 1.89 1.95 1.93 1.91 1.91 1.85 1.77 1.70
0.53 0.96 0.94 0.84 0.77 0.70 0.60 0.58 0.58 0.64 0.82 1.27 1.75 2.28 2.81 2.96 3.03 3.29 3.51 3.43 3.22 2.84 2.56 2.53 2.49 2.52 2.42 2.21 2.14 2.06 1.96 1.89 1.85 1.79 1.78 1.83 1.92 1.96 1.88 1.90 1.87 1.83 1.81 1.67
0.66 1.00 0.98 0.86 0.69 0.75 0.76 0.80 0.81 0.79 0.87 1.21 1.73 2.50 2.80 2.96 3.19 3.31 3.31 3.42 3.39 2.97 2.68 2.60 2.52 2.42 2.48 2.31 2.16 2.01 1.95 1.93 1.94 1.90 1.84 1.81 1.83 1.76 1.72 1.72 1.75 1.68 1.64 1.64
0.74 1.08 1.43 1.30 0.80 1.07 1.50 1.32 1.16 1.14 1.19 1.43 1.90 2.32 2.45 2.64 2.87 3.17 3.38 3.43 3.52 3.20 2.83 2.65 2.60 2.51 2.47 2.52 2.51 2.38 2.15 2.01 1.81 1.79 1.78 1.72 1.67 1.58 1.60 1.57 1.59 1.63 1.69 1.67
0.67 1.15 1.44 1.42 1.55 2.13 1.83 1.24 1.13 1.30 1.42 1.43 1.67 1.79 2.07 2.36 2.54 2.87 3.13 3.45 3.59 3.35 3.04 2.79 2.63 2.54 2.55 2.60 2.56 2.37 2.18 1.95 1.78 1.75 1.68 1.58 1.53 1.50 1.58 1.53 1.56 1.63 1.63 1.58
0.53 1.09 1.55 1.75 2.13 2.23 1.85 1.25 1.13 1.52 1.90 1.52 1.55 1.61 1.69 1.82 2.12 2.73 2.73 2.86 3.18 3.24 3.08 2.91 2.68 2.56 2.53 2.44 2.41 2.33 2.02 1.90 1.85 1.73 1.62 1.46 1.43 1.51 1.49 1.42 1.46 1.53 1.49 1.46
0.65 1.02 1.61 1.87 2.42 2.74 2.24 1.19 0.88 1.36 2.47 1.79 1.57 1.67 1.70 1.93 2.38 2.49 2.21 2.25 2.46 2.66 2.74 2.72 2.59 2.47 2.44 2.29 2.19 2.21 2.07 1.89 1.84 1.73 1.65 1.51 1.49 1.49 1.50 1.53 1.50 1.47 1.43 1.37
1.22 1.42 1.72 1.99 2.42 2.48 1.46 0.97 1.13 2.29 2.75 1.89 1.57 1.70 1.95 2.34 2.33 1.94 1.70 1.82 2.00 2.11 2.26 2.36 2.42 2.44 2.30 2.09 2.06 2.24 2.35 2.19 1.91 1.76 1.71 1.71 1.72 1.67 1.63 1.67 1.64 1.57 1.45 1.42
1.40 1.71 1.89 2.08 2.63 2.65 1.27 1.07 1.77 2.16 1.68 1.52 1.54 1.60 1.67 1.72 1.60 1.50 1.51 1.67 1.72 1.81 1.94 2.11 2.33 2.33 2.25 2.11 2.04 2.03 2.11 2.10 1.97 1.91 1.88 1.82 1.75 1.68 1.66 1.75 1.66 1.63 1.66 1.60
1.32 1.62 1.83 2.11 2.54 2.05 1.30 1.21 1.28 1.30 1.45 1.46 1.57 1.56 1.45 1.42 1.44 1.38 1.47 1.64 1.75 1.80 1.87 1.95 2.07 2.18 2.18 2.03 2.04 2.04 1.97 1.82 1.79 1.95 1.94 1.89 1.79 1.75 1.76 1.78 1.67 1.56 1.66 1.61
1.36 1.13 1.32 1.63 1.76 1.61 1.43 1.21 1.16 1.23 1.28 1.34 1.44 1.46 1.40 1.42 1.34 1.31 1.44 1.60 1.70 1.71 1.79 1.86 1.96 2.07 2.10 1.92 1.88 1.90 1.82 1.78 1.83 1.85 1.85 1.88 1.87 1.77 1.66 1.61 1.55 1.51 1.51 1.55
1.39 1.24 1.42 1.71 1.69 1.61 1.59 1.45 1.33 1.42 1.43 1.36 1.45 1.57 1.52 1.49 1.44 1.33 1.42 1.45 1.50 1.55 1.63 1.74 1.93 2.03 1.94 1.80 1.69 1.65 1.78 1.85 1.94 1.84 1.71 1.71 1.71 1.65 1.61 1.52 1.40 1.36 1.27 1.27
1.29 1.40 1.60 1.87 1.71 1.69 1.63 1.47 1.37 1.61 1.74 1.59 1.53 1.52 1.48 1.45 1.48 1.32 1.26 1.25 1.26 1.33 1.46 1.60 1.74 1.84 1.78 1.70 1.67 1.59 1.68 1.79 1.86 1.76 1.67 1.66 1.59 1.55 1.43 1.36 1.32 1.32 1.21 1.13